Location: Observatoire
(46.1952°N, 5.3391°E)
Time: 15:20:09
(UTC+01:00)

A-11 Canister half - Pass Details

Date: 22 February 2026
Orbit: 1513 x 1687 km, 47.2° (Epoch: 11 March)

Event Time Altitude Azimuth Distance (km) Brightness Sun altitude
Rises 04:36:27 0° 289° (WNW) 4,851 - -30.5°
Reaches altitude 10° 04:41:02 10° 271° (W) 3,827 - -29.8°
Maximum altitude 04:46:36 17° 235° (SW) 3,249 - -28.9°
Drops below altitude 10° 04:52:04 10° 199° (SSW) 3,736 - -28.0°
Exits shadow 04:53:50 - 191° (S) 4,075 11.0 -27.7°
Sets 04:56:31 0° 181° (S) 4,687 11.4 -27.2°
